Location: Kellogg
(38.0159°N, 90.0546°W)
Time: 02:25:34
(UTC+00:00)

SR - Pass Details

Date: 11 September 2024
Orbit: 577 x 855 km, 66.7° (Epoch: 10 October)

Event Time Altitude Azimuth Distance (km) Brightness Sun altitude
Rises 03:57:50 0° 347° (NNW) 2,924 ? -39.4°
Enters shadow 03:59:57 - 0° (N) 2,268 ? -39.7°
Reaches altitude 10° 04:00:45 10° 7° (N) 2,061 - -39.8°
Maximum altitude 04:03:55 18° 50° (NE) 1,651 - -40.2°
Drops below altitude 10° 04:07:14 10° 93° (E) 2,173 - -40.6°
Sets 04:10:24 0° 112° (ESE) 3,151 - -40.9°
